Location: Waco, TX
(31.5480°N, 97.1670°W)
Time: 13:49:46

ISS - Pass Details

Date: 20 March 2018
Orbit: 403 x 406 km, 51.6° (Epoch: 21 March)

Event Time Altitude Azimuth Distance (km) Brightness Sun altitude
Rises 23:17:31 0° 268° (W) 2,316 - -44.4°
Reaches altitude 10° 23:20:29 10° 298° (WNW) 1,459 - -44.9°
Maximum altitude 23:22:05 13° 327° (NNW) 1,294 - -45.2°
Drops below altitude 10° 23:23:42 10° 357° (N) 1,462 - -45.4°
Sets 23:26:41 0° 27° (NNE) 2,325 - -45.9°
